GW0828 Weather Reports


Display with metric or nautical units.
time (UTC)temp
F
wind
direction
speed
MPH
gust
MPH
rain 1hr
in
rain 24hr
in
rain mn
in
humidity
%
barometer
mb
20260503200052 72 16 7.0 13.0 0.00 0.00 0.00 17 1012.9
20260503195534 71 102 4.0 10.0 0.00 0.00 0.00 19 1013.0
20260503195037 71 63 5.0 10.0 0.00 0.00 0.00 20 1013.2
20260503194546 72 40 2.0 8.0 0.00 0.00 0.00 17 1013.2
20260503194037 72 33 2.0 7.0 0.00 0.00 0.00 19 1013.2
20260503193537 71 44 1.0 7.0 0.00 0.00 0.00 21 1013.3
20260503193049 70 45 2.0 6.0 0.00 0.00 0.00 20 1013.5
20260503192536 71 86 0.0 9.0 0.00 0.00 0.00 21 1013.5
20260503192036 71 360 5.0 9.0 0.00 0.00 0.00 19 1013.6
20260503191604 71 342 2.0 6.0 0.00 0.00 0.00 23 1013.6
20260503191037 71 96 1.0 5.0 0.00 0.00 0.00 20 1013.7
20260503190535 71 116 0.0 5.0 0.00 0.00 0.00 19 1013.6
20260503190049 71 10 0.0 7.0 0.00 0.00 0.00 22 1013.7
20260503185537 70 33 3.0 11.0 0.00 0.00 0.00 19 1013.7
20260503185037 70 104 1.0 11.0 0.00 0.00 0.00 22 1013.8
20260503184607 70 89 4.0 13.0 0.00 0.00 0.00 22 1013.6
20260503184039 69 100 6.0 18.0 0.00 0.00 0.00 22 1013.8
20260503183538 69 81 9.0 18.0 0.00 0.00 0.00 24 1013.8
20260503183048 69 61 11.0 16.0 0.00 0.00 0.00 21 1013.9
20260503182538 70 68 6.0 16.0 0.00 0.00 0.00 20 1014.0
20260503182038 71 81 8.0 14.0 0.00 0.00 0.00 21 1014.0
20260503181551 71 102 3.0 13.0 0.00 0.00 0.00 23 1014.1
20260503181039 70 95 7.0 13.0 0.00 0.00 0.00 21 1014.1
20260503180539 69 73 7.0 14.0 0.00 0.00 0.00 21 1014.2
20260503180053 69 107 6.0 14.0 0.00 0.00 0.00 19 1014.2
20260503175539 68 84 5.0 16.0 0.00 0.00 0.00 23 1014.4
20260503175039 68 73 7.0 16.0 0.00 0.00 0.00 23 1014.4
20260503174606 69 80 7.0 17.0 0.00 0.00 0.00 20 1014.4
20260503174038 70 87 11.0 17.0 0.00 0.00 0.00 23 1014.5
20260503173540 70 109 6.0 13.0 0.00 0.00 0.00 22 1014.4
20260503173105 70 95 8.0 12.0 0.00 0.00 0.00 22 1014.6
20260503172540 71 89 4.0 11.0 0.00 0.00 0.00 21 1014.7
20260503172039 71 110 3.0 9.0 0.00 0.00 0.00 22 1014.8
20260503171549 70 104 3.0 10.0 0.00 0.00 0.00 20 1014.8
20260503171039 71 113 2.0 10.0 0.00 0.00 0.00 21 1014.9
20260503170539 71 142 2.0 10.0 0.00 0.00 0.00 20 1015.0
20260503150536 59 101 8.0 14.0 0.00 0.00 0.00 31 1016.1
20260503131037 48 92 2.0 8.0 0.00 0.00 0.00 43 1016.3
20260503130537 48 92 2.0 8.0 0.00 0.00 0.00 44 1016.2
20260503110536 41 347 0.0 3.0 0.00 0.00 0.00 54 1015.4
20260503090104 45 0 0.0 3.0 0.00 0.00 0.00 55 1016.0
20260503081556 46 0 0.0 2.0 0.00 0.00 0.00 43 1016.0
20260503081039 46 347 0.0 2.0 0.00 0.00 0.00 47 1015.9
20260503080541 46 0 0.0 2.0 0.00 0.00 0.00 47 1016.0
20260503072538 50 203 3.0 6.0 0.00 0.00 0.00 38 1016.6
20260503072038 50 258 1.0 6.0 0.00 0.00 0.00 39 1016.7
20260503071607 50 38 3.0 8.0 0.00 0.00 0.00 39 1016.4
20260503071038 50 23 4.0 8.0 0.00 0.00 0.00 36 1016.4
20260503070538 49 20 4.0 8.0 0.00 0.00 0.00 35 1016.6
20260503070110 49 25 3.0 8.0 0.00 0.00 0.00 37 1016.5
20260503060105 49 337 1.0 5.0 0.00 0.00 0.00 44 1016.8
20260503055036 49 360 2.0 3.0 0.00 0.00 0.00 36 1016.7
20260503054555 50 0 1.0 3.0 0.00 0.00 0.00 40 1016.7
20260503054039 50 222 1.0 3.0 0.00 0.00 0.00 36 1016.7
20260503053538 50 13 0.0 2.0 0.00 0.00 0.00 39 1016.7
20260503053047 50 0 0.0 2.0 0.00 0.00 0.00 41 1016.6
20260503052538 50 0 0.0 2.0 0.00 0.00 0.00 32 1016.6
20260503052038 50 0 0.0 1.0 0.00 0.00 0.00 34 1016.6
20260503051551 50 0 0.0 1.0 0.00 0.00 0.00 32 1016.6
20260503051041 50 0 0.0 1.0 0.00 0.00 0.00 34 1016.6
20260503050534 51 0 0.0 0.0 0.00 0.00 0.00 44 1016.6
20260503050100 51 0 0.0 0.0 0.00 0.00 0.00 32 1016.7
20260503045538 51 0 0.0 2.0 0.00 0.00 0.00 33 1016.8
20260503045038 51 0 0.0 2.0 0.00 0.00 0.00 30 1016.8
20260503044547 51 0 0.0 4.0 0.00 0.00 0.00 31 1016.8
20260503044039 51 58 0.0 4.0 0.00 0.00 0.00 36 1017.0
20260503043538 51 25 0.0 4.0 0.00 0.00 0.00 34 1017.0
20260503043046 51 347 1.0 4.0 0.00 0.00 0.00 36 1017.2
20260503042538 52 4 0.0 2.0 0.00 0.00 0.00 43 1017.0
20260503042038 52 0 0.0 1.0 0.00 0.00 0.00 45 1017.0
20260503041552 52 0 0.0 0.0 0.00 0.00 0.00 31 1016.9
20260503041038 52 0 0.0 0.0 0.00 0.00 0.00 37 1016.8
20260503040537 53 0 0.0 0.0 0.00 0.00 0.00 46 1016.9
20260503040046 53 0 0.0 0.0 0.00 0.00 0.00 33 1016.9
20260503035538 54 0 0.0 0.0 0.00 0.00 0.00 41 1016.8
20260503035039 55 0 0.0 2.0 0.00 0.00 0.00 36 1016.7
20260503034551 56 0 0.0 2.0 0.00 0.00 0.00 51 1016.7
20260503034039 56 0 0.0 2.0 0.00 0.00 0.00 38 1016.8
20260503033538 56 0 0.0 2.0 0.00 0.00 0.00 24 1016.6
20260503033055 57 0 0.0 3.0 0.00 0.00 0.00 39 1016.6
20260503032538 57 148 0.0 3.0 0.00 0.00 0.00 21 1016.5
20260503032038 58 151 1.0 3.0 0.00 0.00 0.00 18 1016.5
20260503031548 58 150 1.0 4.0 0.00 0.00 0.00 17 1016.4
20260503031037 58 186 1.0 4.0 0.00 0.00 0.00 16 1016.4
20260503030538 58 134 1.0 2.0 0.00 0.00 0.00 17 1016.4
20260503030050 59 133 0.0 2.0 0.00 0.00 0.00 17 1016.4
20260503025537 59 0 0.0 3.0 0.00 0.00 0.00 18 1016.4
20260503025037 60 133 1.0 4.0 0.00 0.00 0.00 16 1016.4
20260503024551 60 144 1.0 5.0 0.00 0.00 0.00 15 1016.3
20260503024037 61 139 1.0 5.0 0.00 0.00 0.00 15 1016.4
20260503023538 61 144 1.0 5.0 0.00 0.00 0.00 15 1016.3
20260503023052 62 153 2.0 5.0 0.00 0.00 0.00 15 1016.3
20260503022538 63 0 1.0 5.0 0.00 0.00 0.00 14 1016.3
20260503022040 63 148 1.0 4.0 0.00 0.00 0.00 14 1016.2
20260503021554 64 158 1.0 4.0 0.00 0.00 0.00 13 1016.1
20260503021039 64 153 1.0 4.0 0.00 0.00 0.00 13 1016.1
20260503020539 64 0 0.0 5.0 0.00 0.00 0.00 13 1016.2
20260503020050 65 173 1.0 5.0 0.00 0.00 0.00 13 1016.1
20260503015538 65 154 1.0 5.0 0.00 0.00 0.00 12 1016.1
20260503015041 66 164 1.0 4.0 0.00 0.00 0.00 12 1016.1
20260503014601 66 149 1.0 5.0 0.00 0.00 0.00 11 1016.0
20260503014038 66 157 1.0 7.0 0.00 0.00 0.00 11 1016.0
20260503013538 66 137 2.0 7.0 0.00 0.00 0.00 11 1016.0
20260503013053 67 135 3.0 8.0 0.00 0.00 0.00 11 1015.9
20260503012539 67 131 4.0 9.0 0.00 0.00 0.00 11 1016.0
20260503012039 67 121 4.0 9.0 0.00 0.00 0.00 11 1016.0
20260503011600 68 132 4.0 8.0 0.00 0.00 0.00 10 1016.0
20260503011040 68 146 3.0 9.0 0.00 0.00 0.00 11 1015.9
20260503010538 68 175 4.0 10.0 0.00 0.00 0.00 11 1016.0
20260503010052 68 193 5.0 10.0 0.00 0.00 0.00 11 1016.0
20260503005538 68 171 3.0 8.0 0.00 0.00 0.00 11 1016.0
20260503005038 68 130 4.0 8.0 0.00 0.00 0.00 10 1015.9
20260503004548 69 126 3.0 6.0 0.00 0.00 0.00 11 1016.0
20260503004038 69 178 2.0 11.0 0.00 0.00 0.00 10 1016.0
20260503003537 69 92 4.0 11.0 0.00 0.00 0.00 10 1016.1
20260503003054 69 111 6.0 11.0 0.00 0.00 0.00 10 1016.1
20260503002540 69 140 2.0 7.0 0.00 0.00 0.00 11 1016.1
20260503002037 69 152 1.0 8.0 0.00 0.00 0.00 12 1016.2
20260503001559 69 190 4.0 8.0 0.00 0.00 0.00 11 1016.2
20260503001039 69 131 1.0 9.0 0.00 0.00 0.00 13 1016.2
20260503000538 70 125 5.0 12.0 0.00 0.00 0.00 10 1016.3
20260503000116 70 140 6.0 12.0 0.00 0.00 0.00 10 1016.3
20260502235538 69 115 1.0 6.0 0.00 0.00 0.00 12 1016.3
20260502235038 70 109 2.0 9.0 0.00 0.00 0.00 11 1016.3
20260502234607 70 86 4.0 9.0 0.00 0.00 0.00 13 1016.4
20260502234039 70 74 2.0 7.0 0.00 0.00 0.00 15 1016.4
20260502233537 70 89 1.0 4.0 0.00 0.00 0.00 12 1016.4
20260502233047 70 113 1.0 10.0 0.00 0.00 0.00 10 1016.5
20260502232537 70 155 2.0 12.0 0.00 0.00 0.00 12 1016.6
20260502232038 70 127 7.0 12.0 0.00 0.00 0.00 13 1016.6
20260502231544 70 79 4.0 8.0 0.00 0.00 0.00 12 1016.5
20260502231038 71 84 2.0 11.0 0.00 0.00 0.00 11 1016.6
20260502230538 71 101 5.0 11.0 0.00 0.00 0.00 13 1016.6
20260502230044 71 128 4.0 9.0 0.00 0.00 0.00 12 1016.6
20260502225538 71 140 4.0 11.0 0.00 0.00 0.00 11 1016.6
20260502225040 71 108 4.0 11.0 0.00 0.00 0.00 14 1016.6
20260502224552 71 92 5.0 12.0 0.00 0.00 0.00 14 1016.7
20260502224038 71 95 5.0 12.0 0.00 0.00 0.00 10 1016.7
20260502223542 71 142 4.0 11.0 0.00 0.00 0.00 11 1016.8
20260502223057 71 63 2.0 8.0 0.00 0.00 0.00 16 1016.8
20260502222538 71 25 3.0 8.0 0.00 0.00 0.00 10 1016.9
20260502222041 72 113 2.0 10.0 0.00 0.00 0.00 11 1017.0
20260502221549 72 213 4.0 10.0 0.00 0.00 0.00 11 1017.0
20260502221037 72 143 5.0 11.0 0.00 0.00 0.00 11 1017.1
20260502220538 72 189 4.0 11.0 0.00 0.00 0.00 13 1017.2
20260502220100 72 219 2.0 10.0 0.00 0.00 0.00 12 1017.3
20260502215539 70 110 3.0 10.0 0.00 0.00 0.00 16 1017.4
20260502215038 70 88 4.0 9.0 0.00 0.00 0.00 11 1017.5
20260502214551 71 94 3.0 8.0 0.00 0.00 0.00 13 1017.4
20260502214038 71 212 1.0 11.0 0.00 0.00 0.00 12 1017.6
20260502213538 72 113 3.0 11.0 0.00 0.00 0.00 10 1017.7
20260502213051 72 163 5.0 11.0 0.00 0.00 0.00 13 1017.9
20260502212540 72 162 3.0 11.0 0.00 0.00 0.00 14 1017.9
20260502212038 72 273 5.0 11.0 0.00 0.00 0.00 12 1017.9
20260502211547 71 196 5.0 9.0 0.00 0.00 0.00 15 1018.1
20260502211038 70 106 2.0 6.0 0.00 0.00 0.00 14 1018.2
20260502210537 70 110 1.0 5.0 0.00 0.00 0.00 15 1018.3
20260502210050 69 75 1.0 7.0 0.00 0.00 0.00 15 1018.4
20260502205538 69 81 2.0 9.0 0.00 0.00 0.00 14 1018.5
20260502205038 70 200 0.0 9.0 0.00 0.00 0.00 13 1018.7
20260502204549 69 170 4.0 9.0 0.00 0.00 0.00 13 1018.8
20260502204037 69 123 1.0 7.0 0.00 0.00 0.00 16 1018.8
20260502203539 69 114 3.0 7.0 0.00 0.00 0.00 15 1018.9
20260502203103 69 192 2.0 6.0 0.00 0.00 0.00 15 1018.9
20260502202537 68 0 1.0 5.0 0.00 0.00 0.00 16 1018.9
20260502202037 68 40 2.0 6.0 0.00 0.00 0.00 17 1019.0
20260502201603 68 27 2.0 6.0 0.00 0.00 0.00 14 1019.1
20260502201034 68 352 2.0 6.0 0.00 0.00 0.00 15 1019.1
20260502200534 69 125 1.0 8.0 0.00 0.00 0.00 15 1019.1